This is the latest recevied weather packets stored in our database for station/object OE3BCB-14. If no packets are shown the sender has not sent any weather packets the latest 10 day(s).
| Time | Temp. | Humidity | Pressure | Rain* | Wind** | Luminosity | Snow |
|---|---|---|---|---|---|---|---|
| 1777449578 | 14.44° C | 35% | 1026.2 hPa | - | - | 61 W/m² | - |
| 1777448973 | 13.33° C | 34% | 1026.3 hPa | - | - | 170 W/m² | - |
| 1777448671 | 12.78° C | 34% | 1026.2 hPa | - | - | 32 W/m² | - |
| 1777448368 | 13.33° C | 34% | 1026.2 hPa | - | - | 31 W/m² | - |
| 1777448066 | 13.33° C | 35% | 1026.1 hPa | - | - | 30 W/m² | - |
| 1777447764 | 12.78° C | 34% | 1026.1 hPa | - | - | 30 W/m² | - |
| 1777447461 | 12.78° C | 35% | 1026.1 hPa | - | - | 29 W/m² | - |
| 1777447159 | 12.78° C | 35% | 1026 hPa | - | - | 29 W/m² | - |
| 1777446856 | 12.78° C | 35% | 1026 hPa | - | - | 29 W/m² | - |
| 1777446554 | 12.78° C | 35% | 1026 hPa | - | - | 29 W/m² | - |
| 1777446252 | 12.78° C | 35% | 1026.1 hPa | - | - | 29 W/m² | - |
| 1777445949 | 12.78° C | 35% | 1026.1 hPa | - | - | 29 W/m² | - |
| 1777445647 | 12.22° C | 35% | 1026.1 hPa | - | - | 29 W/m² | - |
| 1777445042 | 12.78° C | 35% | 1026.1 hPa | - | - | 29 W/m² | - |
| 1777444740 | 13.33° C | 36% | 1026.2 hPa | - | - | 29 W/m² | - |
| 1777443832 | 13.33° C | 36% | 1026.2 hPa | - | - | 135 W/m² | - |
| 1777443530 | 12.78° C | 37% | 1026.1 hPa | - | - | 134 W/m² | - |
| 1777443228 | 12.78° C | 36% | 1026.1 hPa | - | - | 130 W/m² | - |
| 1777442925 | 12.78° C | 37% | 1026 hPa | - | - | 127 W/m² | - |
| 1777442623 | 12.22° C | 37% | 1026 hPa | - | - | 123 W/m² | - |
| 1777442320 | 12.22° C | 37% | 1026 hPa | - | - | 119 W/m² | - |
| 1777442018 | 12.22° C | 37% | 1026 hPa | - | - | 116 W/m² | - |
| 1777441716 | 12.22° C | 37% | 1026 hPa | - | - | 113 W/m² | - |
| 1777441111 | 11.67° C | 38% | 1026 hPa | - | - | 104 W/m² | - |
| 1777440808 | 11.67° C | 38% | 1026 hPa | - | - | 67 W/m² | - |
* Rain since midnight (hover to see other rain measurements)
** Current wind speed in m/s (hover to see current wind gust speed)